Monticello, KY

6:20 AM EDT on April 19, 2018 (GMT -0400)
Wayne County

Weather History for KEKQ - July, 2013

Change the Weather History Date:

Sunday, July 7, 2013

  Actual Average Record
Temperature  
Mean Temperature 74 °F -  
Max Temperature 83 °F 85 °F 100 °F (2012)
Min Temperature 66 °F 62 °F 46 °F (1972)
Cooling Degree Days 10    
Growing Degree Days 24 (Base 50)    
Moisture  
Dew Point 69 °F    
Average Humidity 92    
Maximum Humidity 100    
Minimum Humidity 61    
Precipitation  
Precipitation 0.50 in - - ()
Sea Level Pressure  
Sea Level Pressure 30.15 in    
Wind  
Wind Speed 3 mph (SW)    
Max Wind Speed 7 mph    
Max Gust Speed -    
Visibility 7 miles    
Events Rain    
Averages and records for this station are not official NWS values.
T = Trace of Precipitation, MM = Missing Value Source: NWS Daily Summary

Daily Weather History Graph

Daily Weather History Graph

Search for Another Location

Airport or City:

Astronomy

Jul. 07, 2013 Rise Set
Actual Time 5:27 AM CDT 8:01 PM CDT
Civil Twilight 4:56 AM CDT 8:31 PM CDT
Nautical Twilight 4:19 AM CDT 9:09 PM CDT
Astronomical Twilight 3:37 AM CDT 9:51 PM CDT
Moon 5:00 AM CDT (7/7) 7:26 PM CDT (7/7)
Length of Visible Light 15h 35m
Length of Day
14h 34m
Waning Crescent, 0% of the Moon is Illuminated
Jul 7
Waning Crescent
Jul 8
New
Jul 15
First Quarter
Jul 22
Full
Jul 29
Last Quarter

Hourly Weather History & Observations

Time (CDT) Temp. Heat Index Dew Point Humidity Pressure Visibility Wind Dir Wind Speed Gust Speed Precip Events Conditions
12:21 AM 68.0 °F - 68.0 °F 100% 30.16 in 3.0 mi SSW 3.5 mph - 0.03 in Rain Light Rain
12:28 AM 68.0 °F - 68.0 °F 100% 30.16 in 1.8 mi South 4.6 mph - 0.06 in Rain Rain
12:40 AM 66.2 °F - 66.2 °F 100% 30.15 in 2.5 mi Calm Calm - 0.08 in Rain Rain
12:56 AM 68.0 °F - 68.0 °F 100% 30.15 in 4.0 mi Calm Calm - 0.11 in Rain Light Rain
1:35 AM 68.0 °F - 68.0 °F 100% 30.13 in 2.0 mi Calm Calm - 0.05 in Rain Light Rain
1:56 AM 66.9 °F - 66.9 °F 100% 30.13 in 4.0 mi Calm Calm - 0.06 in Rain Light Rain
2:10 AM 66.2 °F - 66.2 °F 100% 30.13 in 2.0 mi SSE 3.5 mph - 0.02 in Rain Rain
2:15 AM 66.2 °F - 66.2 °F 100% 30.13 in 1.2 mi SSE 3.5 mph - 0.08 in Rain Heavy Rain
2:20 AM 66.2 °F - 66.2 °F 100% 30.13 in 0.8 mi SSE 3.5 mph - 0.15 in Rain Heavy Rain
2:28 AM 66.2 °F - 66.2 °F 100% 30.13 in 0.8 mi Calm Calm - 0.21 in Rain Heavy Rain
2:35 AM 66.2 °F - 66.2 °F 100% 30.13 in 1.2 mi Calm Calm - 0.23 in Rain Rain
2:44 AM 66.2 °F - 66.2 °F 100% 30.12 in 0.8 mi Calm Calm - 0.32 in Rain Heavy Rain
2:56 AM 66.9 °F - 66.9 °F 100% 30.12 in 3.0 mi SE 4.6 mph - 0.33 in Rain Light Rain
3:03 AM 66.2 °F - 66.2 °F 100% 30.12 in 6.0 mi SE 3.5 mph - 0.00 in Rain Light Rain
3:56 AM 66.9 °F - 66.9 °F 100% 30.12 in 10.0 mi SSE 3.5 mph - 0.00 in   Mostly Cloudy
4:56 AM 66.9 °F - 66.9 °F 100% 30.12 in 10.0 mi SSE 3.5 mph - N/A   Scattered Clouds
5:56 AM 66.9 °F - 66.9 °F 100% 30.13 in 10.0 mi South 3.5 mph - N/A   Partly Cloudy
6:56 AM 68.0 °F - 68.0 °F 100% 30.15 in 10.0 mi Calm Calm - N/A   Scattered Clouds
7:07 AM 69.8 °F - 69.8 °F 100% 30.15 in 10.0 mi Calm Calm - N/A   Mostly Cloudy
7:20 AM 69.8 °F - 69.8 °F 100% 30.16 in 10.0 mi WSW 3.5 mph - N/A   Mostly Cloudy
7:56 AM 70.0 °F - 70.0 °F 100% 30.18 in 10.0 mi Calm Calm - N/A   Overcast
8:15 AM 69.8 °F - 69.8 °F 100% 30.18 in 10.0 mi SSW 3.5 mph - N/A   Mostly Cloudy
8:48 AM 71.6 °F - 71.6 °F 100% 30.19 in 10.0 mi WSW 5.8 mph - N/A   Overcast
8:56 AM 72.0 °F - 72.0 °F 100% 30.19 in 10.0 mi SW 5.8 mph - N/A   Overcast
9:06 AM 73.4 °F - 71.6 °F 94% 30.18 in 10.0 mi SSW 5.8 mph - N/A   Mostly Cloudy
9:25 AM 73.4 °F - 69.8 °F 88% 30.18 in 10.0 mi West 6.9 mph - N/A   Mostly Cloudy
9:32 AM 73.4 °F - 71.6 °F 94% 30.19 in 10.0 mi WSW 5.8 mph - N/A   Mostly Cloudy
9:47 AM 75.2 °F - 71.6 °F 89% 30.19 in 10.0 mi West 6.9 mph - N/A   Mostly Cloudy
9:56 AM 74.8 °F - 70.0 °F 85% 30.18 in 10.0 mi WSW 5.8 mph - N/A   Scattered Clouds
10:56 AM 77.0 °F - 70.0 °F 79% 30.18 in 10.0 mi Variable 5.8 mph - N/A   Partly Cloudy
11:56 AM 79.9 °F - 68.0 °F 67% 30.17 in 10.0 mi WNW 4.6 mph - N/A   Partly Cloudy
12:56 PM 81.0 °F 84.1 °F 68.9 °F 67% 30.16 in 10.0 mi North 3.5 mph - N/A   Partly Cloudy
1:56 PM 82.9 °F 87.5 °F 70.9 °F 67% 30.14 in 10.0 mi Variable 4.6 mph - N/A   Clear
2:56 PM 81.9 °F 84.8 °F 68.0 °F 63% 30.13 in 10.0 mi Variable 3.5 mph - N/A   Mostly Cloudy
3:56 PM 83.8 °F 87.5 °F 68.9 °F 61% 30.11 in 10.0 mi West 5.8 mph - N/A   Clear
4:56 PM 83.8 °F 88.1 °F 70.0 °F 63% 30.10 in 10.0 mi WNW 4.6 mph - N/A   Scattered Clouds
5:56 PM 82.9 °F 87.0 °F 70.0 °F 65% 30.09 in 10.0 mi WNW 5.8 mph - N/A   Scattered Clouds
6:56 PM 81.9 °F 87.0 °F 72.9 °F 74% 30.11 in 10.0 mi NW 4.6 mph - N/A   Clear
7:56 PM 74.8 °F - 73.9 °F 97% 30.12 in 10.0 mi Calm Calm - N/A   Clear
8:56 PM 70.9 °F - 70.9 °F 100% 30.15 in 10.0 mi Calm Calm - N/A   Clear
9:56 PM 68.9 °F - 68.9 °F 100% 30.17 in 6.0 mi Calm Calm - N/A   Clear
10:56 PM 66.9 °F - 66.9 °F 100% 30.17 in 6.0 mi Calm Calm - N/A   Clear
11:56 PM 66.9 °F - 66.9 °F 100% 30.17 in 9.0 mi Calm Calm - N/A   Clear